User: anonymous   Login
Location: Vancouver
(49.2500°N, 123.1330°W)
Time: 14:22:53
(UTC-07:00)
Language:

JAS-1B - Orbit

View from above orbital plane
View from above orbital plane
View from above satellite
View from above satellite

Ground track
Ground track

The orbit data is extracted from the following two-line orbital elements,

1 20480U 90013C   17141.89933236 -.00000034 +00000-0 -11915-4 0  9994
2 20480 099.0510 279.9971 0541024 090.5456 275.7633 12.83415943278302
Epoch (UTC): 21 May 2017 21:35:02
Eccentricity: 0.0541024
inclination: 99.0510°
perigee height: 911 km
apogee height: 1744 km
right ascension of ascending node: 279.9971°
argument of perigee: 90.5456°
revolutions per day: 12.83415943
mean anomaly at epoch: 275.7633°
orbit number at epoch: 27830

The dashed part of the orbit path shows where the satellite is in the earth's shadow,  

DLR